Satellite: PO-28
Catalog number: 22829
Epoch time:      08059.89197170
Element set:     885
Inclination:      098.3513 deg
RA of node:       026.1727 deg
Eccentricity:    0.0009526
Arg of perigee:   187.6509 deg
Mean anomaly:     172.4528 deg
Mean motion:   14.30180909 rev/day
Decay rate:       -7.4e-07 rev/day^2
Epoch rev:           75250
Checksum:              336

Satellite: GO-32
Catalog number: 25397
Epoch time:      08059.85319612
Element set:     537
Inclination:      098.3796 deg
RA of node:       100.3438 deg
Eccentricity:    0.0001274
Arg of perigee:   156.6143 deg
Mean anomaly:     203.5075 deg
Mean motion:   14.23139358 rev/day
Decay rate:        5.7e-07 rev/day^2
Epoch rev:           50066
Checksum:              305

Satellite: MO-46
Catalog number: 26548
Epoch time:      08059.73953846
Element set:      35
Inclination:      064.5571 deg
RA of node:       108.9326 deg
Eccentricity:    0.0017310
Arg of perigee:   339.0807 deg
Mean anomaly:     020.9577 deg
Mean motion:   14.83230150 rev/day
Decay rate:       -9.5e-07 rev/day^2
Epoch rev:           40158
Checksum:              310

Satellite: NO-44
Catalog number: 26931
Epoch time:      08058.95180837
Element set:     816
Inclination:      067.0515 deg
RA of node:       208.6319 deg
Eccentricity:    0.0004908
Arg of perigee:   272.5050 deg
Mean anomaly:     087.5508 deg
Mean motion:   14.29512041 rev/day
Decay rate:      -2.46e-06 rev/day^2
Epoch rev:           33465
Checksum:              307

Satellite: SO-50
Catalog number: 27607
Epoch time:      08059.03341205
Element set:     540
Inclination:      064.5603 deg
RA of node:       028.1645 deg
Eccentricity:    0.0080893
Arg of perigee:   301.3031 deg
Mean anomaly:     058.0172 deg
Mean motion:   14.71330402 rev/day
Decay rate:        6.2e-07 rev/day^2
Epoch rev:           27876
Checksum:              262

Satellite: CO-55
Catalog number: 27844
Epoch time:      08059.48963623
Element set:     246
Inclination:      098.7187 deg
RA of node:       069.2677 deg
Eccentricity:    0.0010823
Arg of perigee:   072.7116 deg
Mean anomaly:     287.5247 deg
Mean motion:   14.20562481 rev/day
Decay rate:        2.7e-07 rev/day^2
Epoch rev:           24186
Checksum:              334

Satellite: CO-57
Catalog number: 27848
Epoch time:      08059.05039295
Element set:     199
Inclination:      098.7194 deg
RA of node:       067.9543 deg
Eccentricity:    0.0010641
Arg of perigee:   077.6680 deg
Mean anomaly:     282.5705 deg
Mean motion:   14.20374320 rev/day
Decay rate:        3.0e-07 rev/day^2
Epoch rev:           24177
Checksum:              323

Satellite: AO-51
Catalog number: 28375
Epoch time:      08059.10016649
Element set:      41
Inclination:      098.0832 deg
RA of node:       089.8021 deg
Eccentricity:    0.0084415
Arg of perigee:   126.1114 deg
Mean anomaly:     234.7924 deg
Mean motion:   14.40597958 rev/day
Decay rate:        8.0e-08 rev/day^2
Epoch rev:           19255
Checksum:              306

Satellite: CO-56
Catalog number: 28941
Epoch time:      08059.22608208
Element set:     868
Inclination:      098.1037 deg
RA of node:       155.4750 deg
Eccentricity:    0.0187408
Arg of perigee:   079.4499 deg
Mean anomaly:     282.7799 deg
Mean motion:   15.50978090 rev/day
Decay rate:     2.3068e-04 rev/day^2
Epoch rev:           11296
Checksum:              366

Satellite: CP4
Catalog number: 31122
Epoch time:      08059.68973612
Element set:     273
Inclination:      098.0538 deg
RA of node:       129.2919 deg
Eccentricity:    0.0084249
Arg of perigee:   309.2309 deg
Mean anomaly:     050.1435 deg
Mean motion:   14.55091602 rev/day
Decay rate:       5.48e-06 rev/day^2
Epoch rev:            4615
Checksum:              301

Satellite: CP3
Catalog number: 31128
Epoch time:      08059.07218519
Element set:     268
Inclination:      098.0507 deg
RA of node:       127.1071 deg
Eccentricity:    0.0101729
Arg of perigee:   315.7740 deg
Mean anomaly:     043.5363 deg
Mean motion:   14.51917079 rev/day
Decay rate:       -4.8e-07 rev/day^2
Epoch rev:            4595
Checksum:              298

Satellite: LIBERT
Catalog number: 31129
Epoch time:      08059.67320709
Element set:     786
Inclination:      098.0511 deg
RA of node:       127.7151 deg
Eccentricity:    0.0102140
Arg of perigee:   314.1377 deg
Mean anomaly:     045.1408 deg
Mean motion:   14.52006724 rev/day
Decay rate:       3.37e-06 rev/day^2
Epoch rev:            4602
Checksum:              262

/EX
SB KEPS @ AMSAT  $ORB08059.W
Orbital Elements  08059.WEATHER

HR AMSAT ORBITAL ELEMENTS FOR WEATHER SATELLITES
FROM WA5QGD FORT WORTH,TX February 28, 2008
Send Subscribe/unsubscribe to KEPS at 
http://www.amsat.org/mailman/listinfo/keps
BID: ORB08059.W
TO ALL RADIO AMATEURS BT

Satellite: NOAA-10
Catalog number: 16969
Epoch time:      08059.09872828
Element set:      22
Inclination:      098.7319 deg
RA of node:       081.2414 deg
Eccentricity:    0.0012805
Arg of perigee:   139.3642 deg
Mean anomaly:     220.8490 deg
Mean motion:   14.27351327 rev/day
Decay rate:       -4.4e-07 rev/day^2
Epoch rev:           11573
Checksum:              300

